SCP
0 0 0 1 1 2 1 1 1 1 1 1 0 0 0 0 0 0 0 0 0 0 0 0 0 0 0 0 0 0 0 0 0 0 0 0 0 0 0 0 0 0 0
0 0 0 1 1 1 1 1 1 1 1 1 0 0 0 0 0 0 0 0 0 0 0 0 0 0 0 0 0 0 0 0 0 0 0 0 0 0 0 0 0 0 0
0 0 0 0 1 1 2 1 1 1 1 1 1 0 0 0 0 0 0 0 0 0 0 0 0 0 0 0 0 0 0 0 0 0 0 0 0 0 0 0 0 0 0
1 0 0 1 1 1 1 2 1 1 1 1 1 0 0 0 0 0 0 0 0 0 0 0 0 0 0 0 0 0 0 0 0 0 0 0 0 0 0 0 0 0 0
1 1 1 1 1 1 1 1 1 1 1 1 1 1 0 0 0 0 0 0 0 0 0 0 0 0 0 0 0 0 0 0 0 0 0 0 0 0 0 0 0 0 0
1 1 1 1 1 1 1 1 1 1 1 1 1 1 1 0 0 0 0 0 0 0 0 0 0 0 0 0 0 0 0 0 0 0 0 0 0 0 0 0 0 0 0
1 1 1 1 1 1 1 1 1 1 1 2 2 1 1 1 0 0 0 0 0 0 0 0 0 0 0 0 0 0 0 0 0 0 0 0 0 0 0 0 0 0 0
0 1 1 1 1 1 1 1 1 1 1 2 2 2 1 1 0 0 0 0 0 0 0 0 0 0 0 0 0 0 0 0 0 0 0 0 0 0 0 0 0 0 0
0 0 0 1 1 1 1 1 1 1 1 1 1 1 1 1 0 0 0 0 0 0 0 0 0 0 0 0 0 0 0 0 0 0 0 0 0 0 0 0 0 0 0
0 0 0 1 1 1 1 1 1 1 1 1 1 1 1 0 0 0 0 0 0 0 0 0 0 0 0 0 0 0 0 0 0 0 0 0 0 0 0 0 0 0 0
0 0 0 1 1 1 1 1 1 1 0 0 0 0 0 0 0 0 0 0 0 0 0 0 0 0 0 0 0 0 0 0 0 0 0 0 0 0 0 0 0 0 0
0 0 0 1 2 2 2 2 1 1 0 0 0 0 0 0 0 0 0 0 0 0 0 0 0 0 0 0 0 0 0 0 0 0 0 0 0 0 0 0 0 0 0
0 0 0 1 2 3 3 2 1 1 0 0 0 0 0 0 0 0 0 0 0 0 0 0 0 0 0 0 0 0 0 0 0 0 0 0 0 0 0 0 0 0 0
0 0 1 1 3 3 3 2 1 1 0 0 0 0 0 0 0 0 0 0 0 0 0 0 0 0 0 0 0 0 0 0 0 0 0 0 0 0 0 0 0 0 0
0 0 1 1 2 3 3 2 1 1 0 0 0 0 0 0 0 0 0 0 0 0 0 0 0 0 0 0 0 0 0 0 0 0 0 0 0 0 0 0 0 0 0
0 0 1 1 2 2 2 2 1 1 0 0 0 0 0 0 0 0 0 0 0 0 0 0 0 0 0 0 0 0 0 0 0 0 0 0 0 0 0 0 0 0 0
0 0 0 1 1 1 1 1 1 1 1 0 0 0 0 0 0 0 0 0 0 0 0 0 0 0 0 0 0 0 0 0 0 0 0 0 0 0 0 0 0 0 0
0 0 0 0 1 1 1 1 1 1 0 0 0 0 0 0 0 0 0 0 0 0 0 0 0 0 0 0 0 0 0 0 0 0 0 0 0 0 0 0 0 0 0
0 0 0 0 0 0 0 0 1 1 0 0 0 0 0 0 0 0 0 0 0 0 0 0 0 0 0 0 0 0 0 0 0 0 0 0 0 0 0 0 0 0 0
1 0 0 0 0 0 0 0 0 0 0 0 0 0 0 0 0 0 0 0 0 0 0 0 0 0 0 0 0 0 0 0 0 0 0 0 0 0 0 0 0 0 0
1 0 0 0 0 0 0 0 0 0 0 0 0 0 0 0 0 0 0 0 0 0 0 0 0 0 0 0 0 0 0 0 0 0 0 0 0 0 0 0 0 0 0
0 0 0 0 0 0 0 0 0 0 0 0 0 0 0 0 0 0 0 0 0 0 0 0 0 0 0 0 0 0 0 0 0 0 0 0 0 0 0 0 0 0 0
0 0 0 0 0 0 0 0 0 0 0 0 0 0 0 0 0 0 0 0 0 0 0 0 0 0 0 0 0 0 0 0 0 0 0 0 0 0 0 0 0 0 0
0 0 0 0 0 0 0 0 0 0 0 0 0 0 0 0 0 0 0 0 0 0 0 0 0 0 0 0 0 0 0 0 0 0 0 0 0 0 0 0 0 0 0
0 0 0 0 0 0 0 0 0 0 0 0 0 0 0 0 0 0 0 0 0 0 0 0 0 0 0 0 0 0 0 0 0 0 0 0 0 0 0 0 0 0 0
0 0 0 0 0 0 0 0 0 0 0 0 0 0 0 0 0 0 0 0 0 0 0 0 0 0 0 0 0 0 0 0 0 0 0 0 0 0 0 0 0 0 0
Wind_Speed
7 6 7 8 7 7 7 7 7 6 5 3 3 2 2 1 1 1 2 3 3 4 4 3 3 3 3 3 4 4 4 2 2 3 3 3 3 2 1 1 1 1 1
5 6 6 6 7 8 7 7 8 7 6 4 3 3 3 1 1 1 1 2 3 4 4 4 3 3 3 3 4 4 3 1 1 2 2 2 3 3 2 1 1 1 1
10 8 7 6 7 8 8 8 8 7 6 5 3 3 3 2 1 1 0 1 3 3 4 4 4 3 3 3 3 4 4 2 0 1 3 3 2 1 2 2 2 1 1
8 8 7 7 7 8 7 7 8 7 6 6 6 6 4 3 3 2 2 1 2 3 4 4 4 4 3 3 3 3 3 4 2 0 0 2 3 2 1 2 2 2 1
8 8 8 8 6 6 7 6 7 6 6 6 7 6 4 3 2 1 2 2 2 2 3 4 4 4 3 4 3 3 3 2 3 2 1 1 1 2 2 1 2 2 1
6 6 5 5 4 4 5 5 6 5 5 6 6 6 6 5 4 3 3 2 1 1 3 3 4 4 3 4 3 3 3 3 2 2 2 2 2 2 2 2 1 1 2
6 6 5 5 5 5 5 6 7 5 5 5 5 5 6 6 6 5 4 3 2 2 3 4 4 3 4 4 3 3 3 3 3 2 2 2 2 2 3 3 1 1 1
4 5 6 6 5 5 5 5 6 5 5 5 5 4 5 4 3 4 4 4 3 4 4 4 5 5 4 4 4 3 3 3 3 3 2 2 1 2 3 3 3 1 1
3 3 4 5 5 5 5 6 7 5 5 5 4 4 4 4 4 4 3 3 3 3 4 5 5 4 4 4 4 3 3 3 3 3 3 2 1 1 2 3 4 4 2
1 2 3 4 5 5 5 5 6 6 5 4 4 4 3 4 4 3 3 3 3 2 3 4 4 4 3 4 3 3 3 3 3 3 3 2 2 1 1 2 2 3 4
1 1 1 2 3 3 4 4 4 4 4 4 3 3 3 3 3 3 3 3 3 3 3 4 4 3 3 3 3 3 4 4 3 3 3 3 2 2 2 2 2 2 3
1 1 1 2 2 2 3 3 4 4 4 4 3 3 3 3 3 3 3 3 3 3 3 3 3 4 4 3 4 4 4 4 4 4 4 3 2 2 2 2 2 2 3
1 1 1 1 1 2 2 2 3 3 3 3 3 3 2 3 3 3 3 3 3 3 3 3 4 4 4 4 4 4 4 4 4 4 4 4 3 3 2 3 3 2 2
1 1 1 1 2 2 2 2 2 2 3 3 3 3 3 3 3 3 3 4 4 4 4 4 4 4 4 4 4 4 3 3 4 4 4 4 4 5 4 3 3 2 2
2 1 0 1 1 1 2 2 2 1 2 2 3 3 3 3 2 2 3 3 4 4 4 4 4 4 4 4 4 4 4 4 3 3 4 4 5 6 4 3 4 4 3
1 1 1 1 1 2 2 1 1 2 2 2 2 2 2 2 2 3 2 3 3 3 3 4 4 4 4 5 6 5 4 4 4 4 3 3 4 5 5 5 5 6 5
1 1 1 2 3 3 3 3 2 2 2 1 1 2 2 2 2 2 2 2 3 3 3 4 4 4 5 6 6 7 4 4 4 4 4 3 3 3 2 3 2 3 5
1 1 2 2 2 2 2 2 2 2 2 1 1 1 2 2 1 1 2 3 2 3 3 3 4 4 4 6 6 6 5 4 4 5 5 5 4 4 4 3 2 2 2
2 2 2 1 1 1 2 2 2 2 2 2 2 2 2 2 2 2 3 3 2 2 3 3 4 4 4 5 6 5 3 3 4 4 4 5 5 7 6 4 3 2 2
0 1 1 1 1 1 1 2 2 1 2 3 3 2 2 3 3 4 3 2 3 3 3 3 3 4 4 5 5 5 3 3 3 3 3 6 6 7 7 5 5 4 3
1 0 1 0 1 1 1 1 1 2 3 2 2 2 2 3 3 3 3 2 2 2 2 3 3 4 5 5 6 6 4 4 4 3 3 3 6 7 7 6 4 6 4
1 0 0 1 1 1 1 0 2 3 2 1 1 2 3 3 2 2 2 2 3 3 3 3 3 2 3 4 5 6 6 5 4 4 3 3 6 6 6 5 5 5 4
1 1 0 1 2 2 0 1 3 2 1 1 1 2 2 2 2 2 3 2 2 3 3 3 3 3 2 3 6 6 7 7 4 4 5 5 5 4 3 4 5 4 2
1 1 1 1 2 2 1 1 2 1 1 1 2 1 1 2 2 2 2 3 3 3 3 3 4 3 2 2 2 3 3 4 4 3 3 4 3 2 2 2 2 2 3
2 1 1 1 2 2 2 2 2 0 0 1 2 1 1 2 2 2 2 3 4 5 5 4 4 4 4 5 6 4 3 4 4 3 2 2 1 1 1 1 1 1 2
1 1 1 1 2 2 2 2 2 1 0 1 1 1 1 2 2 2 3 4 4 5 5 5 4 5 6 5 6 6 6 6 6 4 3 3 3 4 4 3 3 2 3
Wind_Direction
199 181 172 165 157 156 154 152 148 151 140 129 129 125 129 137 117 132 124 126 129 128 122 121 114 112 116 122 119 113 102 86 92 78 41 14 18 31 31 38 71 76 85
186 185 175 163 165 167 165 161 159 160 159 158 158 154 147 149 139 124 116 132 134 140 136 131 129 125 119 115 119 118 112 110 105 112 93 28 359 357 11 17 62 66 59
187 185 181 175 173 174 175 171 171 167 165 156 126 97 75 61 59 65 167 170 154 152 142 141 136 135 131 139 146 144 136 152 203 132 138 143 200 308 338 357 19 34 49
184 183 181 180 181 184 182 173 170 168 165 154 148 150 154 167 195 194 194 189 170 160 154 151 148 146 144 150 162 154 148 148 167 235 175 162 157 153 320 334 349 14 32
182 179 179 181 178 174 173 170 164 165 163 159 159 158 163 177 177 169 174 186 190 176 166 160 155 156 158 164 164 155 153 156 166 176 161 116 100 123 144 236 314 349 338
168 169 167 160 157 153 154 155 157 164 166 163 163 166 172 170 164 178 184 195 201 207 192 170 168 170 169 174 177 170 164 168 165 173 162 157 161 170 153 173 223 270 299
159 160 157 160 161 160 159 157 156 162 168 166 171 180 180 175 179 186 191 192 197 209 211 186 181 180 184 184 176 167 174 173 169 180 183 181 188 166 151 145 166 215 284
149 167 172 171 170 169 166 161 159 163 171 175 180 179 172 175 185 189 189 195 201 209 205 193 193 191 185 184 179 174 186 177 181 188 181 176 199 176 166 159 149 133 315
160 168 174 172 169 168 172 171 165 165 174 179 173 171 175 178 183 185 184 191 202 207 199 194 194 196 190 185 175 181 190 180 189 195 189 186 204 183 177 162 157 154 183
133 152 182 182 177 174 174 168 162 168 175 176 178 178 186 189 185 173 180 192 202 198 181 186 186 189 189 187 181 185 192 181 195 193 187 197 202 187 170 168 169 160 163
130 151 179 185 178 167 166 170 165 163 168 177 181 176 181 188 179 177 185 187 185 183 183 185 180 180 184 187 184 199 194 193 205 203 194 206 197 189 186 173 170 169 155
132 127 156 160 153 162 173 177 174 176 183 184 170 173 179 174 175 187 192 180 179 184 187 179 180 190 190 190 189 200 203 201 206 211 198 212 204 195 193 182 188 187 177
77 73 91 140 184 178 170 174 182 189 188 177 167 166 171 178 193 198 198 188 181 185 190 179 186 194 196 196 203 202 204 205 207 207 202 208 194 205 205 194 196 199 191
134 95 131 174 198 193 189 181 194 192 184 174 170 180 194 198 203 200 195 198 194 191 196 194 200 202 203 202 201 196 201 209 215 213 208 206 200 207 206 203 199 185 170
35 356 303 196 200 205 205 197 204 190 173 168 179 200 209 199 191 196 204 204 203 207 204 198 203 201 202 205 198 195 200 207 214 220 216 211 209 209 205 199 188 175 175
24 328 316 279 219 209 205 197 203 192 154 163 198 198 191 187 194 204 207 205 212 216 209 205 203 203 214 215 204 198 199 200 200 210 218 217 215 214 212 212 197 182 181
332 328 303 255 243 231 200 192 202 175 147 161 188 174 170 183 202 198 192 208 212 210 214 214 207 211 221 214 207 206 197 198 204 204 200 210 204 196 187 205 208 210 208
268 286 293 289 253 231 223 194 167 151 160 174 183 194 190 202 212 189 201 213 204 203 212 216 213 214 227 219 214 210 201 199 207 204 197 196 200 196 184 182 186 216 227
247 256 271 277 275 217 195 161 160 163 168 188 205 210 205 211 207 210 221 218 205 207 212 211 210 213 232 226 215 208 193 199 215 214 204 195 196 203 193 176 184 213 253
282 297 326 8 11 304 129 143 180 197 214 219 224 221 209 215 216 220 222 218 205 210 211 218 215 211 221 224 215 204 181 192 214 220 216 211 202 200 194 184 184 204 236
323 7 57 49 319 315 121 149 197 233 242 234 222 226 223 226 226 225 224 216 210 204 211 224 234 224 222 225 220 206 191 194 198 205 215 219 208 205 205 199 195 208 212
4 60 34 315 317 341 102 148 253 253 254 248 232 238 242 242 244 229 232 222 205 200 217 225 246 249 238 224 224 215 208 197 189 205 211 212 206 206 207 207 206 206 198
327 284 247 320 326 324 116 204 273 282 268 251 258 262 260 258 247 230 227 222 214 211 221 220 231 252 256 241 232 220 210 206 203 208 203 201 199 199 204 205 199 189 170
314 324 355 347 326 316 307 261 277 291 300 277 265 273 284 293 290 265 231 215 213 219 225 227 233 244 249 244 233 225 213 203 207 212 192 182 181 182 192 194 196 188 183
306 332 337 307 304 320 323 316 319 358 312 289 292 290 276 270 284 282 253 231 225 216 218 221 220 221 235 236 225 210 207 196 194 168 136 131 147 173 200 208 212 202 194
308 331 311 306 308 332 332 323 316 312 231 272 285 280 279 271 268 277 295 287 272 266 250 243 234 237 242 239 223 217 210 199 175 152 165 188 197 203 208 210 214 213 214